When you browse on this site, cookies collect data to enhance your experience and personalize the content and advertising you see.
Visit our Privacy Policy to learn more. By continuing to use the site, you agree to this use of cookies and data.
  • In Romania
  • List of Countries
  • For 7 days
  • Water Temperature
  • Satellite Maps
  • Weather Map
  • Weather Widgets
  • user-avatar
    Login

    Hourly Weather Dumfries

    Today, 23 January, Wednesday

    Time Temperature Precipitation Wind Pressure Humidity
    00:00 0°C° 0 mm 1 mps 745 mmHg 85%
    01:00 0°C° 0 mm 1 mps 745 mmHg 85%
    02:00 -2°C° 0 mm 2 mps 745 mmHg 84%
    03:00 -2°C° 0 mm 2 mps 745 mmHg 84%
    04:00 0°C° 0 mm 1 mps 746 mmHg 84%
    05:00 0°C° 0 mm 1 mps 746 mmHg 83%
    06:00 0°C° 0 mm 1 mps 746 mmHg 83%
    07:00 0°C° 0 mm 1 mps 747 mmHg 83%
    08:00 0°C° 0 mm 1 mps 747 mmHg 82%
    09:00 0°C° 0 mm 1 mps 748 mmHg 82%
    10:00 +1°C° 0 mm 1 mps 748 mmHg 78%
    11:00 +2°C° 0 mm 1 mps 748 mmHg 75%
    12:00 +3°C° 0 mm 2 mps 748 mmHg 71%
    13:00 +3°C° 0 mm 2 mps 748 mmHg 73%
    14:00 +4°C° 0 mm 1 mps 748 mmHg 75%
    15:00 +4°C° 0 mm 1 mps 748 mmHg 78%
    16:00 +2°C° 0.1 mm 2 mps 749 mmHg 81%
    17:00 +2°C° 0.1 mm 2 mps 749 mmHg 84%
    18:00 +1°C° 0.1 mm 2 mps 749 mmHg 88%
    19:00 +1°C° 0 mm 2 mps 749 mmHg 89%
    20:00 +2°C° 0 mm 1 mps 749 mmHg 90%
    21:00 +2°C° 0 mm 1 mps 750 mmHg 91%
    22:00 +2°C° 0.1 mm 1 mps 750 mmHg 91%
    23:00 +2°C° 0.1 mm 1 mps 750 mmHg 92%

    Tomorrow, 24 January, Thursday

    Time Temperature Precipitation Wind Pressure Humidity
    00:00 +3°C° 0.1 mm 1 mps 750 mmHg 92%
    01:00 +1°C° 0 mm 2 mps 750 mmHg 92%
    02:00 +1°C° 0 mm 2 mps 750 mmHg 93%
    03:00 +1°C° 0 mm 2 mps 750 mmHg 93%
    04:00 -1°C° 0 mm 2 mps 751 mmHg 92%
    05:00 -1°C° 0 mm 2 mps 751 mmHg 91%
    06:00 -1°C° 0 mm 2 mps 752 mmHg 89%
    07:00 -1°C° 0 mm 2 mps 752 mmHg 89%
    08:00 -1°C° 0 mm 2 mps 753 mmHg 88%
    09:00 -1°C° 0 mm 2 mps 754 mmHg 87%
    10:00 +2°C° 0 mm 1 mps 754 mmHg 83%
    11:00 +3°C° 0 mm 1 mps 755 mmHg 79%
    12:00 +4°C° 0 mm 1 mps 755 mmHg 75%
    13:00 +4°C° 0 mm 1 mps 755 mmHg 76%
    14:00 +4°C° 0 mm 1 mps 755 mmHg 77%
    15:00 +4°C° 0 mm 1 mps 756 mmHg 79%
    16:00 +2°C° 0 mm 0 mps 756 mmHg 80%
    17:00 +1°C° 0 mm 0 mps 756 mmHg 82%
    18:00 0°C° 0 mm 0 mps 757 mmHg 83%
    19:00 0°C° 0 mm 0 mps 757 mmHg 83%
    20:00 0°C° 0 mm 0 mps 758 mmHg 82%
    21:00 0°C° 0 mm 0 mps 758 mmHg 82%
    22:00 0°C° 0 mm 0 mps 758 mmHg 80%
    23:00 0°C° 0 mm 0 mps 758 mmHg 79%

    Day after tomorrow, 25 January, Friday

    Time Temperature Precipitation Wind Pressure Humidity
    00:00 +1°C° 0 mm 0 mps 758 mmHg 77%
    01:00 +2°C° 0.1 mm 1 mps 758 mmHg 78%
    02:00 +2°C° 0.1 mm 1 mps 758 mmHg 78%
    03:00 +2°C° 0.1 mm 1 mps 758 mmHg 78%
    04:00 +2°C° 0.3 mm 1 mps 758 mmHg 81%
    05:00 +2°C° 0.3 mm 1 mps 758 mmHg 84%
    06:00 +2°C° 0.3 mm 1 mps 758 mmHg 87%
    07:00 +2°C° 0.1 mm 1 mps 758 mmHg 89%
    08:00 +1°C° 0.1 mm 2 mps 758 mmHg 90%
    09:00 +2°C° 0.1 mm 2 mps 758 mmHg 92%
    10:00 +3°C° 0.1 mm 2 mps 758 mmHg 93%
    11:00 +3°C° 0.1 mm 2 mps 758 mmHg 95%
    12:00 +4°C° 0.1 mm 2 mps 758 mmHg 96%
    13:00 +5°C° 0 mm 2 mps 758 mmHg 97%
    14:00 +4°C° 0 mm 3 mps 758 mmHg 97%
    15:00 +5°C° 0 mm 3 mps 758 mmHg 98%
    16:00 +5°C° 0 mm 3 mps 757 mmHg 98%
    17:00 +5°C° 0 mm 4 mps 757 mmHg 98%
    18:00 +5°C° 0 mm 4 mps 757 mmHg 98%
    19:00 +5°C° 0 mm 4 mps 757 mmHg 96%
    20:00 +5°C° 0 mm 4 mps 756 mmHg 95%
    21:00 +5°C° 0 mm 4 mps 756 mmHg 94%
    22:00 +5°C° 0 mm 4 mps 755 mmHg 93%
    23:00 +5°C° 0 mm 4 mps 755 mmHg 92%

    26 January, Saturday

    Time Temperature Precipitation Wind Pressure Humidity
    00:00 +5°C° 0 mm 4 mps 754 mmHg 91%
    01:00 +5°C° 0.3 mm 5 mps 753 mmHg 92%
    02:00 +5°C° 0.3 mm 5 mps 752 mmHg 93%
    03:00 +5°C° 0.3 mm 6 mps 751 mmHg 94%
    04:00 +5°C° 0.1 mm 6 mps 750 mmHg 94%
    05:00 +7°C° 0.1 mm 6 mps 749 mmHg 93%
    06:00 +7°C° 0.1 mm 6 mps 748 mmHg 93%
    07:00 +7°C° 0.1 mm 5 mps 747 mmHg 93%
    08:00 +6°C° 0.1 mm 5 mps 746 mmHg 93%
    09:00 +6°C° 0.1 mm 5 mps 746 mmHg 93%
    10:00 +6°C° 1.3 mm 4 mps 745 mmHg 93%
    11:00 +6°C° 1.3 mm 4 mps 745 mmHg 94%
    12:00 +7°C° 1.3 mm 3 mps 745 mmHg 95%
    13:00 +5°C° 0.2 mm 5 mps 745 mmHg 91%
    14:00 +4°C° 0.2 mm 6 mps 745 mmHg 86%
    15:00 +4°C° 0.2 mm 8 mps 745 mmHg 81%
    16:00 +3°C° 0.7 mm 7 mps 746 mmHg 82%
    17:00 +3°C° 0.7 mm 6 mps 747 mmHg 82%
    18:00 +3°C° 0.7 mm 4 mps 748 mmHg 82%
    19:00 +2°C° 0 mm 5 mps 749 mmHg 81%
    20:00 +1°C° 0 mm 5 mps 750 mmHg 79%
    21:00 0°C° 0 mm 5 mps 751 mmHg 78%
    22:00 0°C° 0 mm 5 mps 752 mmHg 77%
    23:00 -1°C° 0 mm 4 mps 753 mmHg 76%

    27 January, Sunday

    Time Temperature Precipitation Wind Pressure Humidity
    00:00 -1°C° 0 mm 4 mps 753 mmHg 76%
    01:00 -1°C° 0 mm 4 mps 754 mmHg 75%
    02:00 -1°C° 0 mm 4 mps 754 mmHg 75%
    03:00 -2°C° 0 mm 4 mps 754 mmHg 75%
    04:00 -2°C° 0 mm 4 mps 755 mmHg 74%
    05:00 -1°C° 0 mm 4 mps 755 mmHg 74%
    06:00 -1°C° 0 mm 4 mps 755 mmHg 74%
    07:00 -1°C° 0 mm 4 mps 756 mmHg 74%
    08:00 -1°C° 0 mm 4 mps 756 mmHg 74%
    09:00 0°C° 0 mm 3 mps 757 mmHg 74%
    10:00 0°C° 0 mm 4 mps 757 mmHg 70%
    11:00 +1°C° 0 mm 5 mps 758 mmHg 66%
    12:00 +1°C° 0 mm 5 mps 758 mmHg 61%
    13:00 +1°C° 0 mm 4 mps 758 mmHg 63%
    14:00 +1°C° 0 mm 4 mps 758 mmHg 65%
    15:00 +2°C° 0 mm 3 mps 759 mmHg 66%
    16:00 +1°C° 0 mm 3 mps 759 mmHg 71%
    17:00 0°C° 0 mm 3 mps 759 mmHg 75%
    18:00 -1°C° 0 mm 2 mps 760 mmHg 79%
    19:00 -1°C° 0 mm 2 mps 760 mmHg 80%
    20:00 -1°C° 0 mm 2 mps 760 mmHg 80%
    21:00 -1°C° 0 mm 2 mps 761 mmHg 81%
    22:00 -1°C° 0 mm 2 mps 761 mmHg 80%
    23:00 -1°C° 0 mm 2 mps 761 mmHg 79%

    28 January, Monday

    Time Temperature Precipitation Wind Pressure Humidity
    00:00 -1°C° 0 mm 2 mps 761 mmHg 78%
    01:00 -1°C° 0 mm 2 mps 761 mmHg 77%
    02:00 -1°C° 0 mm 2 mps 762 mmHg 76%
    03:00 -1°C° 0 mm 2 mps 762 mmHg 75%
    04:00 -1°C° 0 mm 2 mps 762 mmHg 74%
    05:00 -2°C° 0 mm 2 mps 762 mmHg 73%
    06:00 -2°C° 0 mm 2 mps 762 mmHg 73%
    07:00 +1°C° 0 mm 1 mps 762 mmHg 72%
    08:00 +1°C° 0 mm 1 mps 763 mmHg 71%
    09:00 +1°C° 0 mm 1 mps 763 mmHg 70%
    10:00 +2°C° 0 mm 1 mps 763 mmHg 67%
    11:00 +3°C° 0 mm 1 mps 763 mmHg 64%
    12:00 +3°C° 0 mm 2 mps 763 mmHg 61%
    13:00 +3°C° 0 mm 2 mps 763 mmHg 65%
    14:00 +3°C° 0 mm 2 mps 763 mmHg 70%
    15:00 +3°C° 0 mm 2 mps 763 mmHg 75%
    16:00 +3°C° 0 mm 2 mps 763 mmHg 81%
    17:00 +2°C° 0 mm 2 mps 763 mmHg 87%
    18:00 +1°C° 0 mm 2 mps 763 mmHg 93%
    19:00 +2°C° 0 mm 2 mps 763 mmHg 94%
    20:00 +2°C° 0 mm 2 mps 763 mmHg 95%
    21:00 +2°C° 0 mm 2 mps 763 mmHg 96%
    22:00 +1°C° 0 mm 3 mps 763 mmHg 95%
    23:00 +1°C° 0 mm 3 mps 762 mmHg 93%
    Show more